• Join FlightAware (Why Join?)
  • Login
  • US Flag 
07:37AM EDT


 

Airport Tracker/Info


-or-


 

Live Flight TrackerFlight Track Log ✈ CTL15 ✈ 22-Apr-2013 ✈ KMGY - KBKL

Flight Track Log - Related Links

Times and Time Zones

All times are in EDT time to prevent confusion due to time zone crossing. See the CTL15 flight status page for this flight to view local times or setup timezone preferences in your user account.

Time Position Orientation Groundspeed Altitude Reporting Facility
EDT Latitude Longitude Course Direction KTS MPH feet Rate Location/Type
07:53PM 39.6161 -84.2094 41° Northeast 124 143 3,400  Level Indianapolis Center
07:53PM 39.6394 -84.1828 41° Northeast 131 151 4,300 1,020 Climbing Indianapolis Center
07:54PM 39.6458 -84.1747 44° Northeast 124 143 4,600 960 Climbing Indianapolis Center
07:54PM 39.6650 -84.1508 44° Northeast 135 155 5,200 960 Climbing Indianapolis Center
07:55PM 39.6736 -84.1417 39° Northeast 130 150 5,600 900 Climbing Indianapolis Center
07:56PM 39.7006 -84.1064 45° Northeast 134 154 6,500 840 Climbing Indianapolis Center
07:56PM 39.7206 -84.0822 43° Northeast 142 163 7,000 360 Climbing Indianapolis Center
07:57PM 39.7289 -84.0692 50° Northeast 138 159 6,900  Descending Indianapolis Center
07:57PM 39.7578 -84.0356 42° Northeast 174 200 7,000 60 Climbing Indianapolis Center
07:58PM 39.7639 -84.0258 51° Northeast 156 180 7,000  Level Indianapolis Center
07:58PM 39.7881 -83.9961 43° Northeast 182 209 7,000  Level Indianapolis Center
07:59PM 39.8008 -83.9789 46° Northeast 173 199 7,000  Level Indianapolis Center
08:00PM 39.8300 -83.9417 44° Northeast 180 207 7,000  Level Indianapolis Center
08:00PM 39.8367 -83.9322 47° Northeast 179 206 7,000  Level Indianapolis Center
08:01PM 39.8650 -83.8944 46° Northeast 184 212 7,000  Level Indianapolis Center
08:01PM 39.8733 -83.8847 42° Northeast 181 208 7,000  Level Indianapolis Center
08:02PM 39.9017 -83.8503 43° Northeast 185 213 7,000 60 Level Indianapolis Center
08:02PM 39.9106 -83.8369 49° Northeast 184 212 7,100  Climbing Indianapolis Center
08:03PM 39.9367 -83.8031 45° Northeast 183 211 7,000 -120 Descending Indianapolis Center
08:03PM 39.9483 -83.7894 42° Northeast 185 213 7,000 -180 Level Indianapolis Center
08:03PM 39.9669 -83.7633 47° Northeast 184 212 6,900 -120 Descending Indianapolis Center
08:04PM 39.9844 -83.7417 43° Northeast 184 212 6,900  Level Indianapolis Center
08:04PM 40.0039 -83.7161 45° Northeast 182 209 6,900  Level Indianapolis Center
08:05PM 40.0211 -83.6964 41° Northeast 181 208 6,900 60 Level Indianapolis Center
08:05PM 40.0456 -83.6642 45° Northeast 181 208 7,000 60 Climbing Indianapolis Center
08:06PM 40.0647 -83.6422 41° Northeast 182 209 7,000  Level Indianapolis Center
08:06PM 40.0758 -83.6244 51° Northeast 183 211 7,000  Level Indianapolis Center
08:07PM 40.1014 -83.5942 42° Northeast 183 211 7,000  Level Indianapolis Center
08:08PM 40.1267 -83.5597 46° Northeast 185 213 7,000  Level Indianapolis Center
08:08PM 40.1383 -83.5469 40° Northeast 183 211 7,000 -180 Level Indianapolis Center
08:09PM 40.1564 -83.5253 43° Northeast 186 214 6,900 -120 Descending Indianapolis Center
08:09PM 40.1761 -83.4986 46° Northeast 185 213 6,900  Level Indianapolis Center
08:10PM 40.1933 -83.4781 42° Northeast 186 214 6,900  Level Indianapolis Center
08:10PM 40.2139 -83.4506 46° Northeast 187 215 6,900 60 Level Indianapolis Center
08:11PM 40.2300 -83.4306 43° Northeast 187 215 7,000  Climbing Indianapolis Center
08:11PM 40.2486 -83.4019 50° Northeast 184 212 6,900 -120 Descending Indianapolis Center
08:12PM 40.2675 -83.3778 44° Northeast 186 214 6,900 60 Level Indianapolis Center
08:12PM 40.2856 -83.3528 47° Northeast 186 214 7,000 60 Climbing Indianapolis Center
08:12PM 40.2994 -83.3378 39° Northeast 184 212 7,000 -120 Level Indianapolis Center
08:13PM 40.3225 -83.3075 45° Northeast 182 209 6,900  Descending Indianapolis Center
08:14PM 40.3572 -83.2567 48° Northeast 184 212 7,000  Climbing Indianapolis Center
08:15PM 40.3919 -83.2069 47° Northeast 184 212 7,000 -60 Level Indianapolis Center
08:16PM 40.4297 -83.1614 43° Northeast 183 211 6,900 -60 Descending Indianapolis Center
08:17PM 40.4658 -83.1128 46° Northeast 185 213 6,900  Level Indianapolis Center
08:18PM 40.5006 -83.0639 47° Northeast 182 209 6,900  Level Indianapolis Center
08:19PM 40.5294 -83.0111 54° Northeast 179 206 6,900  Level Indianapolis Center
08:20PM 40.5725 -82.9556 44° Northeast 184 212 6,900 -120 Level Indianapolis Center
08:21PM 40.6133 -82.9131 38° Northeast 186 214 6,700 -360 Descending Indianapolis Center
08:22PM 40.6456 -82.8553 54° Northeast 192 221 6,200 -540 Descending Indianapolis Center
08:23PM 40.6714 -82.7919 62° Northeast 194 223 5,600 -660 Descending Indianapolis Center
08:24PM 40.6989 -82.7303 60° Northeast 194 223 4,900 -420 Descending Indianapolis Center
08:25PM 40.7258 -82.6711 59° Northeast 188 216 4,800  Descending Indianapolis Center
08:26PM 40.7506 -82.6200 57° Northeast 170 196 5,000 180 Climbing Indianapolis Center